Weather reports worldwide

Advertisment
Northolt, United Kingdom (3672): temperature & dewpoint: 14.08.2019 05:00:00 - 20.08.2019 05:00:00 (BST)Northolt, United Kingdom (3672): temperature -20cm & temperature -100cm: 14.08.2019 05:00:00 - 20.08.2019 05:00:00 (BST)Northolt, United Kingdom (3672): wind speed & gusts: 14.08.2019 05:00:00 - 20.08.2019 05:00:00 (BST)Northolt, United Kingdom (3672): wind direction: 14.08.2019 05:00:00 - 20.08.2019 05:00:00 (BST)Northolt, United Kingdom (3672): reduced air pressure: 14.08.2019 05:00:00 - 20.08.2019 05:00:00 (BST)Northolt, United Kingdom (3672): visibility: 14.08.2019 05:00:00 - 20.08.2019 05:00:00 (BST)Northolt, United Kingdom (3672): precipitation: 14.08.2019 05:00:00 - 20.08.2019 05:00:00 (BST)
Date & Time tt [°C] td [°C] tt -20cm [°C] tt -100cm [°C] ff [km/h] ff [kn] fx [km/h] fx [kn] dd ppp [hPa] vv [km] rr [mm]
20.08.2019 05:00:00 10,8 9,4 - - 8 4 - - WSW 1019,8 25 -
20.08.2019 04:00:00 11,2 9,6 - - 4 2 - - WSW 1019,5 10 0,0
20.08.2019 03:00:00 12,0 9,8 - - 8 4 - - W 1019,2 10 0,0
20.08.2019 02:00:00 12,3 9,7 - - 8 4 - - WSW 1019,1 28 0,0
20.08.2019 01:00:00 12,6 9,6 - - 11 6 - - WSW 1019,3 10 0,0
20.08.2019 00:00:00 13,4 9,2 - - 11 6 - - WSW 1019,2 30 0,0
19.08.2019 23:00:00 14,2 8,8 - - 11 6 - - WSW 1018,6 10 0,0
19.08.2019 22:00:00 15,3 8,4 - - 18 10 - - W 1018,2 35 0,0
19.08.2019 21:00:00 16,3 7,4 - - 18 10 - - W 1017,5 45 0,0
19.08.2019 20:00:00 17,8 6,6 - - 18 10 - - W 1016,7 10 0,0
19.08.2019 19:00:00 19,3 8,3 - - 24 13 - - W 1016,0 10 0,0
19.08.2019 18:00:00 20,4 8,4 - - 29 16 - - W 1015,3 10 0,0
19.08.2019 17:00:00 20,7 9,3 - - 28 15 48 26 W 1015,0 10 0,0
19.08.2019 16:00:00 20,4 7,9 - - 28 15 48 26 W 1014,8 10 0,0
19.08.2019 15:00:00 21,1 10,6 - - 26 14 - - WSW 1014,3 10 0,0
19.08.2019 14:00:00 18,3 11,8 - - 22 12 - - WSW 1014,4 10 0,0
19.08.2019 13:00:00 18,9 14,5 - - 22 12 - - WSW 1013,8 10 0,4
19.08.2019 12:00:00 15,1 11,8 - - 28 15 - - W 1014,1 10 1,2
19.08.2019 11:00:00 17,2 11,9 - - 21 11 - - W 1013,6 10 0,0
19.08.2019 10:00:00 16,9 12,8 18,0 17,2 26 14 - - WSW 1013,1 10 0,0
19.08.2019 09:00:00 14,7 12,1 - - 18 10 - - WSW 1012,5 10 0,0
19.08.2019 08:00:00 14,2 11,9 - - 16 9 - - WSW 1012,3 10 0,0
19.08.2019 07:00:00 13,5 11,8 - - 13 7 - - SW 1011,9 10 0,0
19.08.2019 06:00:00 12,9 11,3 - - 8 4 - - SW 1011,4 20 0,0
19.08.2019 05:00:00 12,3 10,9 - - 11 6 - - WSW 1011,1 10 0,0
19.08.2019 04:00:00 12,1 10,7 - - 11 6 - - SW 1010,7 10 0,0
19.08.2019 03:00:00 12,4 10,9 - - 15 8 - - WSW 1010,5 24 0,0
19.08.2019 02:00:00 12,4 10,9 - - 11 6 - - SW 1010,3 10 0,0
19.08.2019 01:00:00 13,0 11,2 - - 15 8 - - WSW 1010,1 10 0,0
19.08.2019 00:00:00 13,4 11,9 - - 15 8 - - WSW 1009,8 10 0,0
18.08.2019 23:00:00 13,7 12,5 - - 13 7 - - SW 1009,3 24 0,0
18.08.2019 22:00:00 13,9 12,3 - - 13 7 - - WSW 1008,7 30 0,0
18.08.2019 21:00:00 14,4 12,8 - - 15 8 - - SW 1008,2 10 0,0
18.08.2019 20:00:00 15,0 13,8 - - 13 7 - - SW 1007,5 30 2,8
18.08.2019 19:00:00 18,6 10,9 - - 22 12 - - WSW 1006,7 10 0,0
18.08.2019 18:00:00 19,4 10,5 - - 28 15 - - WSW 1006,6 10 0,0
18.08.2019 17:00:00 21,0 8,9 - - 29 16 50 27 W 1006,1 10 0,0
18.08.2019 16:00:00 21,4 10,3 - - 26 14 50 27 W 1005,7 10 0,0
18.08.2019 15:00:00 21,1 10,5 - - 29 16 48 26 W 1005,2 10 0,0
18.08.2019 14:00:00 20,6 11,4 - - 24 13 - - WSW 1004,8 50 0,0
18.08.2019 13:00:00 19,0 12,4 - - 21 11 - - WSW 1004,6 40 0,0
18.08.2019 12:00:00 17,6 13,3 - - 18 10 - - W 1004,6 40 0,0
18.08.2019 11:00:00 14,7 13,6 - - 11 6 - - WSW 1004,4 10 1,2
18.08.2019 10:00:00 15,0 12,8 18,0 17,2 21 11 - - WSW 1004,3 10 0,4
18.08.2019 09:00:00 16,4 12,7 - - 11 6 - - SW 1003,2 10 0,0
18.08.2019 08:00:00 15,6 12,8 - - 9 5 - - WSW 1002,9 10 0,0
18.08.2019 07:00:00 14,7 12,9 - - 8 4 - - SW 1002,8 10 0,0
18.08.2019 06:00:00 14,1 12,2 - - 11 6 - - SW 1002,8 10 0,0
18.08.2019 05:00:00 14,9 12,6 - - 11 6 - - SW 1003,3 10 0,0
18.08.2019 04:00:00 14,9 12,4 - - 11 6 - - SW 1003,6 24 0,0
18.08.2019 03:00:00 15,1 12,3 - - 8 4 - - SSW 1004,0 24 0,0
18.08.2019 02:00:00 15,4 12,5 - - 9 5 - - SW 1004,5 10 0,0
18.08.2019 01:00:00 15,6 12,8 - - 9 5 - - SW 1005,0 21 0,0
18.08.2019 00:00:00 15,9 12,8 - - 9 5 - - SW 1004,7 10 0,0
17.08.2019 23:00:00 16,4 12,4 - - 16 9 - - WSW 1005,3 10 0,0
17.08.2019 22:00:00 17,1 12,6 - - 16 9 - - SW 1005,5 10 0,0
17.08.2019 21:00:00 17,6 12,9 - - 21 11 - - SW 1004,9 26 0,0
17.08.2019 20:00:00 18,7 12,9 - - 22 12 - - SW 1004,6 10 0,0
17.08.2019 19:00:00 20,1 13,3 - - 22 12 - - SW 1004,6 10 0,0
17.08.2019 18:00:00 21,7 10,9 - - 18 10 - - W 1004,5 10 0,0
17.08.2019 17:00:00 21,6 11,2 - - 21 11 - - W 1004,5 10 0,0
17.08.2019 16:00:00 21,7 10,8 - - 22 12 - - W 1004,8 10 0,0
17.08.2019 15:00:00 21,7 11,3 - - 29 16 - - W 1004,8 10 0,0
17.08.2019 14:00:00 20,4 11,8 - - 28 15 - - W 1004,8 10 0,0
17.08.2019 13:00:00 20,9 13,3 - - 24 13 - - WSW 1004,8 40 0,0
17.08.2019 12:00:00 18,3 13,1 - - 22 12 - - W 1005,0 10 0,0
17.08.2019 11:00:00 18,7 13,3 - - 26 14 - - WSW 1005,0 10 0,0
17.08.2019 10:00:00 18,3 13,7 17,7 17,4 21 11 - - WSW 1004,6 10 0,0
17.08.2019 09:00:00 16,9 14,0 - - 21 11 - - WSW 1004,7 10 0,0
17.08.2019 08:00:00 15,6 13,7 - - 15 8 - - WSW 1004,6 10 0,0
17.08.2019 07:00:00 14,8 13,9 - - 11 6 - - WSW 1004,1 25 0,0
17.08.2019 06:00:00 15,3 14,4 - - 11 6 - - WSW 1003,8 23 0,0
17.08.2019 05:00:00 16,2 15,4 - - 16 9 46 25 W 1003,6 30 1,2
17.08.2019 04:00:00 17,3 16,6 - - 15 8 - - SW 1002,9 30 0,0
17.08.2019 03:00:00 17,4 16,7 - - 13 7 - - WSW 1003,1 40 0,0
17.08.2019 02:00:00 17,2 16,6 - - 16 9 - - SW 1003,1 35 0,0
17.08.2019 01:00:00 16,9 16,4 - - 18 10 - - SW 1003,1 10 0,0
17.08.2019 00:00:00 16,8 16,2 - - 18 10 - - SW 1003,5 9 0,4
16.08.2019 23:00:00 16,5 16,0 - - 21 11 - - SSW 1004,0 3,9 2,6
16.08.2019 22:00:00 16,4 15,7 - - 22 12 - - SSW 1004,6 2,1 0,2
16.08.2019 21:00:00 16,4 15,5 - - 28 15 - - SSW 1005,0 6 0,4
16.08.2019 20:00:00 16,5 15,0 - - 28 15 46 25 SSW 1005,5 5 0,2
16.08.2019 19:00:00 16,4 15,0 - - 28 15 - - SSW 1006,6 10 0,8
16.08.2019 18:00:00 16,4 14,9 - - 28 15 - - SSW 1007,3 5 0,6
16.08.2019 17:00:00 16,5 15,0 - - 21 11 - - SSW 1008,5 10 0,4
16.08.2019 16:00:00 16,8 14,1 - - 24 13 - - SSW 1009,4 20 0,0
16.08.2019 15:00:00 16,7 13,8 - - 24 13 - - SSW 1010,1 10 0,4
16.08.2019 14:00:00 16,4 13,9 - - 22 12 46 25 SSW 1010,6 10 0,4
16.08.2019 13:00:00 17,0 12,4 - - 28 15 - - SSW 1011,1 10 0,0
16.08.2019 12:00:00 18,4 11,6 - - 29 16 - - SSW 1011,7 10 0,0
16.08.2019 11:00:00 17,9 13,1 - - 18 10 - - SW 1012,6 10 0,0
16.08.2019 10:00:00 17,6 13,7 17,9 17,5 22 12 - - SSW 1013,1 10 0,0
16.08.2019 09:00:00 16,6 14,0 - - 18 10 - - SSW 1014,0 10 0,0
16.08.2019 08:00:00 15,9 13,9 - - 13 7 - - SSW 1014,2 10 0,0
16.08.2019 07:00:00 14,1 12,4 - - 8 4 - - SSW 1014,8 10 0,0
16.08.2019 06:00:00 12,9 11,7 - - 4 2 - - WSW 1015,5 10 0,0
16.08.2019 05:00:00 12,0 11,3 - - 2 1 - - SW 1015,8 10 0,0
16.08.2019 04:00:00 11,5 10,9 - - 8 4 - - SW 1016,4 10 0,0
16.08.2019 03:00:00 12,1 11,2 - - 4 2 - - SSE 1016,7 10 0,0
16.08.2019 02:00:00 12,3 11,1 - - 8 4 - - SW 1017,0 24 0,0
16.08.2019 01:00:00 12,7 11,0 - - 5 3 - - W 1017,1 29 0,0
16.08.2019 00:00:00 12,6 9,2 - - 4 2 - - W 1017,3 10 0,0
15.08.2019 23:00:00 13,7 9,9 - - 4 2 - - W 1017,2 10 0,0
15.08.2019 22:00:00 15,4 9,7 - - 8 4 - - NW 1017,2 40 0,0
15.08.2019 21:00:00 16,7 9,6 - - 5 3 - - NW 1016,4 10 0,0
15.08.2019 20:00:00 19,1 9,7 - - 13 7 - - NW 1016,1 10 0,0
15.08.2019 19:00:00 19,5 9,7 - - 16 9 - - WNW 1015,6 10 0,0
15.08.2019 18:00:00 20,3 9,1 - - 24 13 - - WNW 1014,8 10 0,0
15.08.2019 17:00:00 21,2 9,0 - - 26 14 - - WNW 1013,9 10 0,0
15.08.2019 16:00:00 22,0 10,0 - - 29 16 - - WNW 1013,5 10 0,0
15.08.2019 15:00:00 21,6 10,4 - - 26 14 48 26 WNW 1013,2 10 0,0
15.08.2019 14:00:00 21,6 10,7 - - 35 19 48 26 W 1012,7 10 0,0
15.08.2019 13:00:00 21,1 12,1 - - 28 15 48 26 WNW 1012,1 10 0,0
15.08.2019 12:00:00 20,3 12,3 - - 31 17 48 26 WNW 1011,6 10 0,0
15.08.2019 11:00:00 19,6 11,8 - - 34 18 48 26 W 1010,8 10 0,0
15.08.2019 10:00:00 18,6 12,9 18,0 17,5 29 16 - - WNW 1010,6 10 0,0
15.08.2019 09:00:00 17,3 13,5 - - 24 13 - - W 1010,2 10 0,0
15.08.2019 08:00:00 16,3 13,8 - - 22 12 - - W 1009,6 10 0,0
15.08.2019 07:00:00 15,6 14,2 - - 22 12 - - W 1009,1 10 0,0
15.08.2019 06:00:00 14,3 13,4 - - 13 7 - - WSW 1008,9 10 0,0
15.08.2019 05:00:00 14,7 13,5 - - 9 5 - - WSW 1008,3 10 0,0
15.08.2019 04:00:00 15,6 14,3 - - 16 9 - - W 1008,1 19 0,0
15.08.2019 03:00:00 16,6 15,4 - - 21 11 - - W 1007,8 20 0,0
15.08.2019 02:00:00 16,7 15,6 - - 16 9 - - WSW 1007,8 10 0,2
15.08.2019 01:00:00 16,9 15,8 - - 18 10 - - WSW 1007,9 30 0,0
15.08.2019 00:00:00 17,0 16,0 - - 11 6 - - SW 1007,7 10 0,0
14.08.2019 23:00:00 17,1 16,3 - - 15 8 - - SW 1007,6 10 0,0
14.08.2019 22:00:00 17,1 16,4 - - 16 9 - - WSW 1007,7 4,7 0,2
14.08.2019 21:00:00 17,1 16,3 - - 15 8 - - SW 1007,6 3,9 0,2
14.08.2019 20:00:00 17,2 16,3 - - 13 7 - - SW 1007,8 10 0,0
14.08.2019 19:00:00 17,2 16,5 - - 16 9 - - SSW 1007,9 10 0,2
14.08.2019 18:00:00 16,7 16,2 - - 16 9 - - SSW 1008,5 6 1,0
14.08.2019 17:00:00 16,7 15,9 - - 18 10 - - SSW 1009,2 9 0,4
14.08.2019 16:00:00 16,4 15,4 - - 24 13 - - SSW 1010,1 6 0,6
14.08.2019 15:00:00 16,0 15,0 - - 21 11 - - SSW 1010,8 10 0,2
14.08.2019 14:00:00 15,3 14,0 - - 15 8 - - S 1011,6 10 0,0
14.08.2019 13:00:00 13,9 13,1 - - 16 9 - - S 1012,6 5 2,0
14.08.2019 12:00:00 14,2 13,3 - - 26 14 - - SSW 1013,4 6 2,6
14.08.2019 11:00:00 14,9 13,7 - - 18 10 - - SSW 1014,1 5 0,6
14.08.2019 10:00:00 14,7 13,7 18,2 17,7 15 8 - - S 1014,2 5 2,2
14.08.2019 09:00:00 15,4 13,8 - - 15 8 - - SSW 1014,7 10 0,4
14.08.2019 08:00:00 15,8 13,3 - - 13 7 - - SSW 1014,9 10 0,0
14.08.2019 07:00:00 15,1 13,4 - - 9 5 - - SSW 1015,4 10 0,0
14.08.2019 06:00:00 13,9 12,4 - - 5 3 - - S 1015,6 26 0,0
14.08.2019 05:00:00 14,0 12,4 - - 5 3 - - S 1015,8 10 0,0

tt = temperature
td = dewpoint
tt -20cm = temperature -20cm
tt -100cm = temperature -100cm
ff = wind speed
fx = gusts
dd = wind direction
ppp = reduced air pressure
vv = visibility
rr = precipitation

Next stations